FW6667 Weather Reports


time (UTC)temp
C
wind
direction
speed
KPH
gust
KPH
rain 1hr
cm
rain 24hr
cm
rain mn
cm
humidity
%
barometer
mb
20260505025012 5 155 0.0 0.0 0.00 0.00 0.00 94 1017.9
20260505024010 5 155 0.0 0.0 0.00 0.00 0.00 93 1017.6
20260505023010 5 155 0.0 0.0 0.00 0.00 0.00 93 1017.9
20260505022011 5 155 0.0 0.0 0.00 0.00 0.00 91 1017.8
20260505021012 5 155 0.0 0.0 0.00 0.00 0.00 90 1017.6
20260505020013 6 155 0.0 0.0 0.00 0.00 0.00 90 1017.9
20260505011009 6 155 0.0 0.0 0.00 0.00 0.00 89 1017.6
20260505010009 6 155 0.0 0.0 0.00 0.00 0.00 84 1017.9
20260505004009 7 155 0.0 0.0 0.00 0.00 0.00 83 1017.9
20260505003010 8 155 0.0 0.0 0.00 0.00 0.00 80 1017.9
20260505002010 8 155 0.0 1.6 0.00 0.00 0.00 80 1017.9
20260505001009 8 155 0.0 1.6 0.00 0.00 0.00 75 1017.9
20260505000010 8 154 0.0 0.0 0.00 0.00 0.00 75 1017.9
20260504235012 8 155 0.0 1.6 0.00 0.00 0.00 75 1017.9
20260504234009 8 156 0.0 3.2 0.00 0.00 0.00 77 1018.2
20260504233010 8 144 1.6 1.6 0.00 0.00 0.00 81 1018.6
20260504232010 8 161 0.0 0.0 0.00 0.00 0.00 84 1018.4
20260504231010 8 162 0.0 1.6 0.00 0.00 0.00 78 1018.3
20260504230010 10 162 0.0 1.6 0.00 0.00 0.00 76 1018.4
20260504225008 10 153 1.6 1.6 0.00 0.00 0.00 68 1018.6
20260504224009 11 149 0.0 1.6 0.00 0.00 0.00 66 1018.3
20260504223012 11 149 0.0 0.0 0.00 0.00 0.00 65 1018.3
20260504220013 11 155 0.0 0.0 0.00 0.00 0.00 66 1018.6
20260504215008 11 156 0.0 0.0 0.00 0.00 0.00 69 1018.6
20260504214008 11 156 0.0 0.0 0.00 0.00 0.00 69 1018.6
20260504213009 11 156 0.0 1.6 0.00 0.00 0.00 69 1018.6
20260504212010 10 156 0.0 0.0 0.00 0.00 0.00 71 1018.6
20260504211009 10 156 0.0 0.0 0.00 0.00 0.00 71 1018.6
20260504205010 11 156 0.0 1.6 0.00 0.00 0.00 72 1018.6
20260504204009 11 156 0.0 0.0 0.00 0.00 0.00 68 1018.6
20260504201010 13 151 0.0 0.0 0.00 0.00 0.00 62 1018.6
20260504200009 13 151 0.0 0.0 0.00 0.00 0.00 59 1018.6
20260504195010 14 151 0.0 0.0 0.00 0.00 0.00 58 1018.6
20260504194007 14 151 0.0 0.0 0.00 0.00 0.00 58 1018.6
20260504192010 15 151 0.0 0.0 0.00 0.00 0.00 57 1018.6
20260504191009 15 151 0.0 0.0 0.00 0.00 0.00 55 1018.3
20260504190010 16 150 0.0 1.6 0.00 0.00 0.00 53 1018.3
20260504185019 16 151 0.0 1.6 0.00 0.00 0.00 52 1018.3
20260504183009 16 159 0.0 0.0 0.00 0.00 0.00 52 1018.2
20260504182009 16 159 0.0 0.0 0.00 0.00 0.00 54 1018.3
20260504181010 16 159 0.0 0.0 0.00 0.00 0.00 54 1018.1
20260504180009 17 159 0.0 0.0 0.00 0.00 0.00 53 1017.9
20260504174013 19 159 0.0 0.0 0.00 0.00 0.00 48 1017.9
20260504173018 21 160 0.0 1.6 0.00 0.00 0.00 39 1018.0
20260504172009 21 161 0.0 4.8 0.00 0.00 0.00 36 1017.9
20260504171008 22 158 3.2 4.8 0.00 0.00 0.00 35 1018.3
20260504151011 25 149 1.6 12.9 0.00 0.00 0.00 28 1018.6
20260504141012 25 177 8.0 16.1 0.00 0.00 0.00 25 1019.0
20260504100205 22 110 6.4 16.1 0.00 0.00 0.00 34 1022.1
20260504044104 6 174 0.0 1.6 0.00 0.00 0.00 81 1022.5
20260504043135 5 173 0.0 1.6 0.00 0.00 0.00 84 1022.4
20260504040032 3 158 0.0 0.0 0.00 0.00 0.00 93 1022.3
20260504035043 3 149 0.0 0.0 0.00 0.00 0.00 92 1022.0
20260504034027 3 153 0.0 0.0 0.00 0.00 0.00 95 1022.0
20260504033038 2 158 0.0 0.0 0.00 0.00 0.00 95 1022.0
20260504032025 2 158 0.0 0.0 0.00 0.00 0.00 95 1022.0
20260504031021 2 159 0.0 0.0 0.00 0.00 0.00 95 1022.4
20260504030023 2 159 0.0 0.0 0.00 0.00 0.00 94 1022.0